Regional Weather Roundup
Issued by NWS

Home | Current Version | Previous Version | Graphics & Text | Print | Product List | Glossary On
Versions: 1 2 3 4 5 6 7 8 9 10 11 12 13 14 15 16 17 18 19 20 21 22 23 24 25 26 27 28 29 30 31 32 33 34 35 36 37 38 39 40 41 42 43 44 45 46 47 48 49 50
115
ASUS44 KJAN 012103
RWRMS

MISSISSIPPI HOURLY WEATHER ROUNDUP
NATIONAL WEATHER SERVICE JACKSON MS
400 PM CDT FRI AUG 01 2014

NOTE: "FAIR: INDICATES FEW OR NO CLOUDS BELOW 12,000 FEET WITH NO
SIGNIFICANT WEATHER AND/OR OBSTRUCTIONS TO VISIBILITY.

MSZ001>002-007>008-010>013-018>021-025>028-034>036-012200-
NORTHWEST MISSISSIPPI

CITY           SKY/WX    TMP DP  RH WIND       PRES   REMARKS
CLARKSDALE     FAIR      82  66  57 CALM      30.02F
CLEVELAND      CLOUDY    79  68  68 S5        30.01F
GREENWOOD      LGT RAIN  79  69  71 CALM      30.01F
GREENVILLE     CLOUDY    78  64  61 E6        30.01F
GRENADA        FAIR      81  63  54 S5        30.01F
OXFORD         FAIR      82  63  51 NE3       30.03F
TUNICA         PTCLDY    82  63  51 E7        30.03S
$$

MSZ003>006-009-014>017-022>024-029>033-037>039-012200-
NORTHEAST MISSISSIPPI

CITY           SKY/WX    TMP DP  RH WIND       PRES   REMARKS
BELMONT        MOCLDY    82  68  61 NE6       30.02F
COLUMBUS AFB   CLOUDY    82  67  59 VRB5      30.00F
CORINTH        MOCLDY    86  63  45 NE7       30.02F
GOLDN TRIANGLE MOSUNNY   86  66  51 N5        30.01F
STARKVILLE     MOCLDY    81  66  61 CALM      30.01S
TUPELO         PTSUNNY   85  63  47 NE7       30.00F
$$

MSZ040-058-012200-
CENTRAL MISSISSIPPI

CITY           SKY/WX    TMP DP  RH WIND       PRES   REMARKS
JACKSON INTL   CLOUDY    78  67  68 E3        30.01F
JACKSON HAWKNS CLOUDY    78  64  61 SE6       30.02S
MERIDIAN KEY   CLOUDY    82  65  56 W8        29.99F
MERIDIAN NAS   CLOUDY    86  63  45 N5        29.99F
RAYMOND        MOCLDY    81  75  83 SE5       30.01F
VICKSBURG      RAIN      75  71  87 S7        30.00S FOG
$$

MSZ059>079-012200-
SOUTH MISSISSIPPI

CITY           SKY/WX    TMP DP  RH WIND       PRES   REMARKS
BROOKHAVEN     FAIR      75  72  88 SE3       30.03F
COLUMBIA       FAIR      77  72  83 CALM      30.00S
HATTIESBURG    CLOUDY    81  67  62 N5        30.02S
MCCOMB         LGT RAIN  75  71  87 E3        30.01F
NATCHEZ        CLOUDY    72  70  94 SE7       29.99S
PINE BELT      CLOUDY    81  66  61 CALM      30.03F
$$

MSZ080>082-012200-
COASTAL MISSISSIPPI

CITY           SKY/WX    TMP DP  RH WIND       PRES   REMARKS
BAY ST LOUIS   SUNNY    N/A N/A N/A VRB5      29.99S
BILOXI         CLOUDY    83  67  58 N5        29.99S
PASCAGOULA     CLOUDY    84  71  65 VRB5      29.99S
GULFPORT       PTSUNNY   88  65  46 CALM      29.99S HX  90
$$



USA.gov is the U.S. government's official web portal to all federal, state and local government web resources and services.